,,PressureMeas_1m,,PRMeasQMR101_1,,RHStat155_1m_1,,SRMeasQMS101R_1m,,TAStat155_1m_1,,GenWind_1,,GenWind_1,
2017-03-11, 07:00:06,VALID,917.404,VALID,0.0,VALID,97.886,VALID,5.613,VALID,18.82,VALID,121.0,VALID,1.116,
2017-03-11, 07:01:06,VALID,917.427,VALID,0.0,VALID,97.87,VALID,5.72,VALID,18.829,VALID,125.0,VALID,1.252,
2017-03-11, 07:02:06,VALID,917.452,VALID,0.0,VALID,97.841,VALID,5.809,VALID,18.829,VALID,118.0,VALID,1.286,
2017-03-11, 07:03:06,VALID,917.473,VALID,0.0,VALID,97.791,VALID,5.892,VALID,18.842,VALID,116.0,VALID,1.244,
2017-03-11, 07:04:06,VALID,917.505,VALID,0.0,VALID,97.745,VALID,5.952,VALID,18.848,VALID,115.0,VALID,1.281,
2017-03-11, 07:05:06,VALID,917.516,VALID,0.0,VALID,97.723,VALID,6.133,VALID,18.864,VALID,111.0,VALID,1.291,
2017-03-11, 07:06:06,VALID,917.529,VALID,0.0,VALID,97.659,VALID,6.348,VALID,18.867,VALID,108.0,VALID,1.333,
2017-03-11, 07:07:06,VALID,917.531,VALID,0.0,VALID,97.634,VALID,6.685,VALID,18.889,VALID,110.0,VALID,1.411,
2017-03-11, 07:08:06,VALID,917.536,VALID,0.0,VALID,97.527,VALID,7.064,VALID,18.905,VALID,107.0,VALID,1.204,
2017-03-11, 07:09:06,VALID,917.534,VALID,0.0,VALID,97.5,VALID,7.408,VALID,18.928,VALID,104.0,VALID,1.302,
2017-03-11, 07:10:06,VALID,917.552,VALID,0.0,VALID,97.389,VALID,7.698,VALID,18.944,VALID,106.0,VALID,1.484,
2017-03-11, 07:11:06,VALID,917.558,VALID,0.0,VALID,97.238,VALID,7.97,VALID,18.955,VALID,105.0,VALID,1.527,
2017-03-11, 07:12:06,VALID,917.584,VALID,0.0,VALID,97.115,VALID,8.243,VALID,18.978,VALID,101.0,VALID,1.446,
2017-03-11, 07:13:06,VALID,917.611,VALID,0.0,VALID,96.978,VALID,8.513,VALID,18.993,VALID,110.0,VALID,1.138,
2017-03-11, 07:14:06,VALID,917.636,VALID,0.0,VALID,96.936,VALID,8.837,VALID,19.004,VALID,112.0,VALID,1.102,
2017-03-11, 07:15:06,VALID,917.661,VALID,0.0,VALID,96.893,VALID,9.152,VALID,19.008,VALID,105.0,VALID,0.831,
2017-03-11, 07:16:06,VALID,917.69,VALID,0.0,VALID,96.884,VALID,9.5,VALID,19.014,VALID,96.0,VALID,0.739,
2017-03-11, 07:17:06,VALID,917.704,VALID,0.0,VALID,96.854,VALID,9.844,VALID,19.009,VALID,87.0,VALID,0.648,
2017-03-11, 07:18:06,VALID,917.733,VALID,0.0,VALID,96.85,VALID,10.273,VALID,19.0,VALID,95.0,VALID,0.55,
2017-03-11, 07:19:06,VALID,917.746,VALID,0.0,VALID,96.876,VALID,10.74,VALID,18.994,VALID,92.0,VALID,0.596,
2017-03-11, 07:20:06,VALID,917.762,VALID,0.0,VALID,96.808,VALID,11.234,VALID,18.971,VALID,81.0,VALID,0.78,
2017-03-11, 07:21:06,VALID,917.777,VALID,0.0,VALID,96.82,VALID,11.752,VALID,18.949,VALID,82.0,VALID,0.864,
2017-03-11, 07:22:06,VALID,917.794,VALID,0.0,VALID,96.838,VALID,12.233,VALID,18.933,VALID,87.0,VALID,0.914,
2017-03-11, 07:23:06,VALID,917.799,VALID,0.0,VALID,96.895,VALID,12.707,VALID,18.932,VALID,90.0,VALID,1.023,
2017-03-11, 07:24:06,VALID,917.815,VALID,0.0,VALID,96.924,VALID,13.263,VALID,18.936,VALID,90.0,VALID,0.97,
2017-03-11, 07:25:06,VALID,917.824,VALID,0.0,VALID,96.981,VALID,13.938,VALID,18.945,VALID,90.0,VALID,0.96,
2017-03-11, 07:26:06,VALID,917.839,VALID,0.0,VALID,96.977,VALID,14.762,VALID,18.975,VALID,81.0,VALID,0.921,
2017-03-11, 07:27:06,VALID,917.865,VALID,0.0,VALID,96.925,VALID,15.623,VALID,19.016,VALID,79.0,VALID,0.843,
2017-03-11, 07:28:06,VALID,917.892,VALID,0.0,VALID,96.816,VALID,16.443,VALID,19.061,VALID,68.0,VALID,0.55,
2017-03-11, 07:29:06,VALID,917.907,VALID,0.0,VALID,96.73,VALID,17.193,VALID,19.09,VALID,44.0,VALID,0.268,
2017-03-11, 07:30:06,VALID,917.934,VALID,0.0,VALID,96.766,VALID,17.804,VALID,19.122,VALID,33.0,VALID,0.079,
2017-03-11, 07:31:06,VALID,917.956,VALID,0.0,VALID,96.758,VALID,18.271,VALID,19.142,VALID,319.0,VALID,0.184,
2017-03-11, 07:32:06,VALID,917.988,VALID,0.0,VALID,96.726,VALID,18.611,VALID,19.164,VALID,283.0,VALID,0.479,
2017-03-11, 07:33:06,VALID,918.006,VALID,0.0,VALID,96.858,VALID,19.003,VALID,19.155,VALID,270.0,VALID,0.505,
2017-03-11, 07:34:06,VALID,918.036,VALID,0.0,VALID,97.058,VALID,19.831,VALID,19.12,VALID,272.0,VALID,0.437,
2017-03-11, 07:35:06,VALID,918.04,VALID,0.0,VALID,97.194,VALID,21.231,VALID,19.082,VALID,281.0,VALID,0.377,
2017-03-11, 07:36:06,VALID,918.048,VALID,0.0,VALID,97.295,VALID,23.323,VALID,19.053,VALID,280.0,VALID,0.316,
2017-03-11, 07:37:06,VALID,918.054,VALID,0.0,VALID,97.35,VALID,26.124,VALID,19.056,VALID,281.0,VALID,0.0,
2017-03-11, 07:38:06,VALID,918.066,VALID,0.0,VALID,97.393,VALID,29.577,VALID,19.09,VALID,281.0,VALID,0.045,
2017-03-11, 07:39:06,VALID,918.071,VALID,0.0,VALID,97.369,VALID,33.284,VALID,19.104,VALID,294.0,VALID,0.213,
2017-03-11, 07:40:06,VALID,918.101,VALID,0.0,VALID,97.308,VALID,36.837,VALID,19.106,VALID,87.0,VALID,0.243,
2017-03-11, 07:41:06,VALID,918.122,VALID,0.0,VALID,97.36,VALID,40.121,VALID,19.131,VALID,86.0,VALID,0.333,
2017-03-11, 07:42:06,VALID,918.148,VALID,0.0,VALID,97.396,VALID,43.008,VALID,19.139,VALID,83.0,VALID,0.364,
2017-03-11, 07:43:06,VALID,918.181,VALID,0.0,VALID,97.417,VALID,45.351,VALID,19.15,VALID,79.0,VALID,0.363,
2017-03-11, 07:44:06,VALID,918.205,VALID,0.0,VALID,97.392,VALID,47.012,VALID,19.151,VALID,79.0,VALID,0.338,
2017-03-11, 07:45:06,VALID,918.236,VALID,0.0,VALID,97.466,VALID,48.502,VALID,19.183,VALID,79.0,VALID,0.374,
2017-03-11, 07:46:06,VALID,918.261,VALID,0.0,VALID,97.353,VALID,50.44,VALID,19.171,VALID,79.0,VALID,0.425,
2017-03-11, 07:47:06,VALID,918.276,VALID,0.0,VALID,97.279,VALID,53.027,VALID,19.171,VALID,78.0,VALID,0.411,
2017-03-11, 07:48:06,VALID,918.298,VALID,0.0,VALID,97.299,VALID,56.369,VALID,19.202,VALID,76.0,VALID,0.482,
2017-03-11, 07:49:06,VALID,918.311,VALID,0.0,VALID,97.298,VALID,60.177,VALID,19.247,VALID,71.0,VALID,0.453,
2017-03-11, 07:50:06,VALID,918.333,VALID,0.0,VALID,97.33,VALID,64.372,VALID,19.31,VALID,56.0,VALID,0.429,
2017-03-11, 07:51:06,VALID,918.34,VALID,0.0,VALID,97.279,VALID,68.772,VALID,19.345,VALID,51.0,VALID,0.429,
2017-03-11, 07:52:06,VALID,918.356,VALID,0.0,VALID,97.28,VALID,73.073,VALID,19.406,VALID,41.0,VALID,0.527,
2017-03-11, 07:53:06,VALID,918.374,VALID,0.0,VALID,97.109,VALID,77.362,VALID,19.431,VALID,46.0,VALID,0.644,
2017-03-11, 07:54:06,VALID,918.39,VALID,0.0,VALID,96.858,VALID,81.623,VALID,19.455,VALID,49.0,VALID,0.71,
2017-03-11, 07:55:06,VALID,918.397,VALID,0.0,VALID,96.685,VALID,86.023,VALID,19.498,VALID,52.0,VALID,0.845,
2017-03-11, 07:56:06,VALID,918.402,VALID,0.0,VALID,96.475,VALID,91.044,VALID,19.538,VALID,57.0,VALID,0.71,
2017-03-11, 07:57:06,VALID,918.418,VALID,0.0,VALID,96.231,VALID,96.502,VALID,19.569,VALID,60.0,VALID,0.727,
2017-03-11, 07:58:06,VALID,918.427,VALID,0.0,VALID,96.435,VALID,102.051,VALID,19.633,VALID,84.0,VALID,0.717,
2017-03-11, 07:59:06,VALID,918.429,VALID,0.0,VALID,96.227,VALID,107.383,VALID,19.65,VALID,95.0,VALID,0.675,
2017-03-11, 08:00:06,VALID,918.438,VALID,0.0,VALID,96.356,VALID,112.148,VALID,19.685,VALID,117.0,VALID,0.853,
2017-03-11, 08:01:06,VALID,918.445,VALID,0.0,VALID,96.201,VALID,116.03,VALID,19.707,VALID,125.0,VALID,1.128,
2017-03-11, 08:02:06,VALID,918.446,VALID,0.0,VALID,96.021,VALID,119.661,VALID,19.714,VALID,125.0,VALID,1.097,
2017-03-11, 08:03:06,VALID,918.468,VALID,0.0,VALID,96.235,VALID,122.891,VALID,19.753,VALID,148.0,VALID,1.05,
2017-03-11, 08:04:06,VALID,918.477,VALID,0.0,VALID,96.197,VALID,125.732,VALID,19.721,VALID,154.0,VALID,1.098,
2017-03-11, 08:05:06,VALID,918.513,VALID,0.0,VALID,96.042,VALID,128.159,VALID,19.65,VALID,154.0,VALID,1.328,
2017-03-11, 08:06:06,VALID,918.506,VALID,0.0,VALID,95.919,VALID,130.457,VALID,19.582,VALID,159.0,VALID,1.249,
2017-03-11, 08:07:06,VALID,918.516,VALID,0.0,VALID,96.015,VALID,132.789,VALID,19.533,VALID,153.0,VALID,1.175,
2017-03-11, 08:08:06,VALID,918.538,VALID,0.0,VALID,96.265,VALID,134.727,VALID,19.51,VALID,152.0,VALID,0.98,
2017-03-11, 08:09:06,VALID,918.539,VALID,0.0,VALID,96.451,VALID,136.763,VALID,19.491,VALID,154.0,VALID,0.847,
2017-03-11, 08:10:06,VALID,918.559,VALID,0.0,VALID,96.871,VALID,139.835,VALID,19.53,VALID,151.0,VALID,0.764,
2017-03-11, 08:11:06,VALID,918.566,VALID,0.0,VALID,96.723,VALID,143.541,VALID,19.504,VALID,150.0,VALID,0.863,
2017-03-11, 08:12:06,VALID,918.582,VALID,0.0,VALID,96.768,VALID,147.543,VALID,19.513,VALID,156.0,VALID,1.047,
2017-03-11, 08:13:06,VALID,918.583,VALID,0.0,VALID,96.584,VALID,151.315,VALID,19.49,VALID,153.0,VALID,1.074,
2017-03-11, 08:14:06,VALID,918.584,VALID,0.0,VALID,96.501,VALID,155.229,VALID,19.484,VALID,153.0,VALID,1.137,
2017-03-11, 08:15:06,VALID,918.586,VALID,0.0,VALID,96.68,VALID,161.172,VALID,19.53,VALID,154.0,VALID,1.224,
2017-03-11, 08:16:06,VALID,918.576,VALID,0.0,VALID,96.431,VALID,169.248,VALID,19.523,VALID,151.0,VALID,1.42,
2017-03-11, 08:17:06,VALID,918.568,VALID,0.0,VALID,96.682,VALID,178.232,VALID,19.592,VALID,156.0,VALID,1.381,
2017-03-11, 08:18:06,VALID,918.559,VALID,0.0,VALID,96.65,VALID,188.165,VALID,19.63,VALID,154.0,VALID,1.492,
2017-03-11, 08:19:06,VALID,918.567,VALID,0.0,VALID,96.505,VALID,199.125,VALID,19.655,VALID,153.0,VALID,1.418,
2017-03-11, 08:20:06,VALID,918.568,VALID,0.0,VALID,96.589,VALID,221.456,VALID,19.718,VALID,149.0,VALID,1.42,
2017-03-11, 08:21:06,VALID,918.567,VALID,0.0,VALID,96.39,VALID,206.469,VALID,19.76,VALID,149.0,VALID,1.056,
2017-03-11, 08:22:06,VALID,918.582,VALID,0.0,VALID,96.511,VALID,200.099,VALID,19.838,VALID,149.0,VALID,1.162,
2017-03-11, 08:23:06,VALID,918.6,VALID,0.0,VALID,95.889,VALID,196.311,VALID,19.889,VALID,142.0,VALID,1.224,
2017-03-11, 08:24:06,VALID,918.598,VALID,0.0,VALID,95.315,VALID,194.452,VALID,19.94,VALID,141.0,VALID,1.189,
2017-03-11, 08:25:06,VALID,918.607,VALID,0.0,VALID,95.188,VALID,194.198,VALID,20.018,VALID,142.0,VALID,1.072,
2017-03-11, 08:26:06,VALID,918.63,VALID,0.0,VALID,94.8,VALID,195.01,VALID,20.107,VALID,142.0,VALID,1.133,
2017-03-11, 08:27:06,VALID,918.632,VALID,0.0,VALID,94.617,VALID,212.302,VALID,20.203,VALID,153.0,VALID,1.223,
2017-03-11, 08:28:06,VALID,918.633,VALID,0.0,VALID,94.662,VALID,275.79,VALID,20.297,VALID,153.0,VALID,1.205,
2017-03-11, 08:29:06,VALID,918.642,VALID,0.0,VALID,93.997,VALID,308.426,VALID,20.38,VALID,149.0,VALID,1.27,
2017-03-11, 08:30:06,VALID,918.643,VALID,0.0,VALID,94.016,VALID,374.312,VALID,20.497,VALID,130.0,VALID,1.331,
2017-03-11, 08:31:06,VALID,918.644,VALID,0.0,VALID,93.569,VALID,439.881,VALID,20.665,VALID,134.0,VALID,1.206,
2017-03-11, 08:32:06,VALID,918.642,VALID,0.0,VALID,92.162,VALID,481.994,VALID,20.803,VALID,149.0,VALID,1.788,
2017-03-11, 08:33:06,VALID,918.655,VALID,0.0,VALID,91.387,VALID,478.626,VALID,20.876,VALID,162.0,VALID,1.374,
2017-03-11, 08:34:06,VALID,918.642,VALID,0.0,VALID,90.384,VALID,460.472,VALID,20.928,VALID,152.0,VALID,2.059,
2017-03-11, 08:35:06,VALID,918.672,VALID,0.0,VALID,91.558,VALID,483.423,VALID,20.98,VALID,146.0,VALID,1.091,
2017-03-11, 08:36:06,VALID,918.648,VALID,0.0,VALID,91.483,VALID,481.596,VALID,21.089,VALID,149.0,VALID,1.26,
2017-03-11, 08:37:06,VALID,918.648,VALID,0.0,VALID,90.86,VALID,479.134,VALID,21.193,VALID,149.0,VALID,1.311,
2017-03-11, 08:38:06,VALID,918.639,VALID,0.0,VALID,90.769,VALID,477.904,VALID,21.259,VALID,147.0,VALID,1.322,
2017-03-11, 08:39:06,VALID,918.632,VALID,0.0,VALID,87.795,VALID,479.476,VALID,21.276,VALID,144.0,VALID,1.812,
